Tracking 19847 objects as of 16-Sep-2019
HD Live streaming from Space Station
objects crossing your sky now

FENGYUN 1C DEB

Track FENGYUN 1C DEB now!
10-day predictions


NORAD ID: 31998
Int'l Code: 1999-025CQB
Perigee: 419.6 km
Apogee: 444.2 km
Inclination: 105.5 °
Period: 93.1 minutes
Semi major axis: 6802 km
RCS: 0.0125 m2 (small)
Launch date: May 10, 1999
Source: People's Republic of China (PRC)
Launch site: Taiyaun Space Center, China (TSC)

Note: This is SATELLITE DEBRIS
aabbcc
Your satellite tracking list
Your tracking list is empty




NASA's NSSDC Master Catalog

Two Line Element Set (TLE):
1 31998U 99025CQB 19258.34926453  .00098552  00000-0  19003-2 0  9990
2 31998 105.4855 311.3087 0018138 200.8175 159.2303 15.47256381657662
Source of the keplerian elements: AFSPC